Starlink 11077

operational
NORAD ID: 58707 Int'l Des: 2024-002 Owner: SPXS Country: US Constellation: starlink
LEOCIRCULAR

关于 Starlink 11077

正在加载描述...

实时位置

正在加载3D地球...

即将过境

高度历史

Altitude vs Time

uPlot chart will show altitude changes over time

两行轨道根数

1 58707U 24002C 25350.20511008 .00002258 00000-0 23492-4 0 9998
2 58707 53.1573 325.6665 0001281 41.4006 318.7109 15.69711085113325
Epoch: Dec 16, 2025 • Age: 19 hours

当前状态

高度 376.8 km
速度 7.68 km/s
星下点 -47.70°S, 106.15°E
发射日期 Jan 3, 2024
运行时间 1.9 years
类型 internet

技术详情

分类 Payload
质量 960.00 kg
干质量 910.00 kg
总质量 960.00 kg
长度 0.30 m
直径 4.10 m
跨度 29.00 m
形状 Box + pan
制造商 SPXS
平台类型 Starlink V2MD
阶段状态 In Orbit
所有者/国家 SPXS/US

大型星座

Loading constellations...